• In Latvia
  • List of Countries
  • For 7 days
  • Water Temperature
  • Satellite Maps
  • Weather Map
  • Weather Widgets
  • user-avatar
    Login

    Hourly Weather Vinnitsa

    Today, 21 September, Friday

    Time Temperature Precipitation Wind Pressure Humidity
    00:00 +18°C° 0 mm 1 mps 739 mmHg 56%
    01:00 +18°C° 0 mm 1 mps 739 mmHg 57%
    02:00 +16°C° 0 mm 1 mps 739 mmHg 58%
    03:00 +16°C° 0 mm 1 mps 739 mmHg 58%
    04:00 +16°C° 0 mm 1 mps 739 mmHg 58%
    05:00 +15°C° 0 mm 1 mps 739 mmHg 59%
    06:00 +18°C° 0 mm 1 mps 739 mmHg 57%
    07:00 +19°C° 0 mm 1 mps 739 mmHg 55%
    08:00 +20°C° 0 mm 1 mps 739 mmHg 54%
    09:00 +21°C° 0 mm 2 mps 739 mmHg 49%
    10:00 +24°C° 0 mm 2 mps 739 mmHg 44%
    11:00 +26°C° 0 mm 3 mps 740 mmHg 39%
    12:00 +27°C° 0 mm 3 mps 739 mmHg 37%
    13:00 +27°C° 0 mm 3 mps 739 mmHg 35%
    14:00 +28°C° 0 mm 3 mps 739 mmHg 34%
    15:00 +27°C° 0 mm 3 mps 738 mmHg 37%
    16:00 +26°C° 0 mm 3 mps 738 mmHg 41%
    17:00 +25°C° 0 mm 2 mps 737 mmHg 45%
    18:00 +23°C° 0 mm 2 mps 737 mmHg 47%
    19:00 +21°C° 0 mm 2 mps 737 mmHg 48%
    20:00 +19°C° 0 mm 3 mps 737 mmHg 50%
    21:00 +19°C° 0 mm 3 mps 737 mmHg 51%
    22:00 +18°C° 0 mm 3 mps 737 mmHg 51%
    23:00 +18°C° 0 mm 3 mps 737 mmHg 52%

    Tomorrow, 22 September, Saturday

    Time Temperature Precipitation Wind Pressure Humidity
    00:00 +17°C° 0 mm 3 mps 737 mmHg 52%
    01:00 +17°C° 0 mm 3 mps 736 mmHg 53%
    02:00 +17°C° 0 mm 3 mps 736 mmHg 54%
    03:00 +16°C° 0 mm 3 mps 736 mmHg 54%
    04:00 +16°C° 0 mm 3 mps 736 mmHg 54%
    05:00 +16°C° 0 mm 3 mps 736 mmHg 55%
    06:00 +17°C° 0 mm 3 mps 736 mmHg 54%
    07:00 +18°C° 0 mm 4 mps 736 mmHg 54%
    08:00 +19°C° 0 mm 4 mps 736 mmHg 53%
    09:00 +21°C° 0 mm 4 mps 736 mmHg 49%
    10:00 +23°C° 0 mm 4 mps 736 mmHg 45%
    11:00 +26°C° 0 mm 5 mps 736 mmHg 41%
    12:00 +26°C° 0 mm 5 mps 736 mmHg 40%
    13:00 +27°C° 0 mm 5 mps 735 mmHg 39%
    14:00 +27°C° 0 mm 5 mps 735 mmHg 37%
    15:00 +26°C° 0 mm 5 mps 735 mmHg 45%
    16:00 +23°C° 0 mm 5 mps 735 mmHg 53%
    17:00 +21°C° 0 mm 4 mps 735 mmHg 61%
    18:00 +19°C° 0 mm 5 mps 735 mmHg 65%
    19:00 +16°C° 0 mm 6 mps 735 mmHg 69%
    20:00 +14°C° 0 mm 7 mps 735 mmHg 72%
    21:00 +12°C° 1.3 mm 7 mps 736 mmHg 77%
    22:00 +10°C° 1.3 mm 7 mps 736 mmHg 82%
    23:00 +9°C° 1.3 mm 6 mps 737 mmHg 87%

    Day after tomorrow, 23 September, Sunday

    Time Temperature Precipitation Wind Pressure Humidity
    00:00 +8°C° 1.3 mm 6 mps 737 mmHg 87%
    01:00 +8°C° 1.3 mm 5 mps 737 mmHg 87%
    02:00 +7°C° 1.3 mm 4 mps 737 mmHg 87%
    03:00 +8°C° 0 mm 3 mps 737 mmHg 89%
    04:00 +7°C° 0 mm 3 mps 738 mmHg 90%
    05:00 +7°C° 0 mm 3 mps 738 mmHg 91%
    06:00 +8°C° 0 mm 3 mps 738 mmHg 87%
    07:00 +8°C° 0 mm 4 mps 738 mmHg 83%
    08:00 +9°C° 0 mm 5 mps 738 mmHg 79%
    09:00 +11°C° 0 mm 6 mps 738 mmHg 71%
    10:00 +13°C° 0 mm 6 mps 738 mmHg 62%
    11:00 +15°C° 0 mm 7 mps 738 mmHg 54%
    12:00 +16°C° 0 mm 7 mps 738 mmHg 51%
    13:00 +16°C° 0 mm 7 mps 738 mmHg 49%
    14:00 +16°C° 0 mm 7 mps 738 mmHg 46%
    15:00 +16°C° 0 mm 6 mps 738 mmHg 49%
    16:00 +15°C° 0 mm 5 mps 738 mmHg 52%
    17:00 +15°C° 0 mm 4 mps 738 mmHg 55%
    18:00 +13°C° 0 mm 3 mps 738 mmHg 58%
    19:00 +12°C° 0 mm 3 mps 739 mmHg 62%
    20:00 +10°C° 0 mm 2 mps 739 mmHg 65%
    21:00 +10°C° 0 mm 2 mps 739 mmHg 66%
    22:00 +10°C° 0 mm 2 mps 739 mmHg 66%
    23:00 +9°C° 0 mm 2 mps 739 mmHg 67%

    24 September, Monday

    Time Temperature Precipitation Wind Pressure Humidity
    00:00 +9°C° 0 mm 2 mps 738 mmHg 68%
    01:00 +9°C° 0 mm 3 mps 738 mmHg 68%
    02:00 +9°C° 0 mm 3 mps 737 mmHg 68%
    03:00 +9°C° 0 mm 3 mps 737 mmHg 66%
    04:00 +8°C° 0 mm 4 mps 736 mmHg 64%
    05:00 +9°C° 0 mm 5 mps 735 mmHg 62%
    06:00 +10°C° 0 mm 6 mps 734 mmHg 59%
    07:00 +11°C° 0 mm 7 mps 733 mmHg 56%
    08:00 +12°C° 0 mm 8 mps 732 mmHg 53%
    09:00 +15°C° 0 mm 8 mps 732 mmHg 51%
    10:00 +17°C° 0 mm 9 mps 731 mmHg 49%
    11:00 +19°C° 0 mm 10 mps 730 mmHg 47%
    12:00 +19°C° 0 mm 9 mps 729 mmHg 50%
    13:00 +19°C° 0 mm 9 mps 728 mmHg 52%
    14:00 +19°C° 0 mm 9 mps 726 mmHg 55%
    15:00 +20°C° 0.2 mm 8 mps 726 mmHg 58%
    16:00 +20°C° 0.2 mm 8 mps 726 mmHg 62%
    17:00 +20°C° 0.2 mm 7 mps 725 mmHg 65%
    18:00 +17°C° 0.3 mm 8 mps 726 mmHg 65%
    19:00 +13°C° 0.3 mm 9 mps 726 mmHg 65%
    20:00 +11°C° 0.3 mm 10 mps 727 mmHg 65%
    21:00 +11°C° 0 mm 10 mps 727 mmHg 65%
    22:00 +9°C° 0 mm 10 mps 728 mmHg 66%
    23:00 +8°C° 0 mm 9 mps 728 mmHg 66%

    25 September, Tuesday

    Time Temperature Precipitation Wind Pressure Humidity
    00:00 +8°C° 0 mm 10 mps 729 mmHg 65%
    01:00 +8°C° 0 mm 10 mps 729 mmHg 63%
    02:00 +8°C° 0 mm 10 mps 729 mmHg 62%
    03:00 +8°C° 0 mm 11 mps 729 mmHg 62%
    04:00 +8°C° 0 mm 11 mps 730 mmHg 62%
    05:00 +8°C° 0 mm 11 mps 730 mmHg 61%
    06:00 +7°C° 0 mm 12 mps 731 mmHg 61%
    07:00 +7°C° 0 mm 12 mps 731 mmHg 60%
    08:00 +7°C° 0 mm 12 mps 732 mmHg 59%
    09:00 +7°C° 0 mm 12 mps 732 mmHg 58%
    10:00 +7°C° 0 mm 12 mps 733 mmHg 57%
    11:00 +8°C° 0 mm 12 mps 734 mmHg 56%
    12:00 +8°C° 0 mm 12 mps 734 mmHg 54%
    13:00 +8°C° 0 mm 11 mps 735 mmHg 52%
    14:00 +8°C° 0 mm 11 mps 735 mmHg 50%
    15:00 +8°C° 0 mm 10 mps 736 mmHg 49%
    16:00 +8°C° 0 mm 9 mps 736 mmHg 48%
    17:00 +9°C° 0 mm 8 mps 736 mmHg 47%
    18:00 +8°C° 0 mm 7 mps 737 mmHg 50%
    19:00 +6°C° 0 mm 7 mps 737 mmHg 53%
    20:00 +7°C° 0 mm 6 mps 737 mmHg 56%
    21:00 +5°C° 0 mm 6 mps 738 mmHg 57%
    22:00 +5°C° 0 mm 6 mps 738 mmHg 58%
    23:00 +5°C° 0 mm 6 mps 738 mmHg 58%

    26 September, Wednesday

    Time Temperature Precipitation Wind Pressure Humidity
    00:00 +4°C° 0 mm 6 mps 738 mmHg 62%
    01:00 +5°C° 0 mm 5 mps 738 mmHg 67%
    02:00 +5°C° 0 mm 5 mps 738 mmHg 71%
    03:00 +5°C° 0 mm 5 mps 737 mmHg 70%
    04:00 +5°C° 0 mm 5 mps 737 mmHg 69%
    05:00 +5°C° 0 mm 5 mps 737 mmHg 69%
    06:00 +5°C° 0.1 mm 5 mps 737 mmHg 71%
    07:00 +4°C° 0.1 mm 6 mps 737 mmHg 74%
    08:00 +5°C° 0.1 mm 6 mps 737 mmHg 76%
    09:00 +7°C° 0 mm 6 mps 738 mmHg 74%
    10:00 +8°C° 0 mm 5 mps 738 mmHg 72%
    11:00 +8°C° 0 mm 5 mps 738 mmHg 71%
    12:00 +9°C° 0.1 mm 5 mps 739 mmHg 68%
    13:00 +11°C° 0.1 mm 4 mps 739 mmHg 66%
    14:00 +11°C° 0.1 mm 4 mps 739 mmHg 64%
    15:00 +11°C° 0.1 mm 4 mps 740 mmHg 65%
    16:00 +11°C° 0.1 mm 4 mps 740 mmHg 66%
    17:00 +11°C° 0.1 mm 4 mps 740 mmHg 68%
    18:00 +8°C° 0 mm 4 mps 741 mmHg 71%
    19:00 +8°C° 0 mm 3 mps 742 mmHg 75%
    20:00 +7°C° 0 mm 3 mps 742 mmHg 79%
    21:00 +6°C° 0 mm 2 mps 742 mmHg 78%
    22:00 +6°C° 0 mm 2 mps 743 mmHg 78%
    23:00 +5°C° 0 mm 2 mps 743 mmHg 77%
    Show more